Location: ?????
(30.4569°N, 47.8921°E)
Time: 23:25:51
(UTC+00:00)

Cosmos 2151 - Pass Details

Date: 07 June 2020
Orbit: 581 x 601 km, 82.5° (Epoch: 07 July)

Event Time Altitude Azimuth Distance (km) Brightness Sun altitude
Exits shadow 00:03:54 35° 268° (W) 966 3.6 -18.9°
Maximum altitude 00:04:15 36° 279° (W) 956 3.7 -18.8°
Drops below altitude 10° 00:08:12 10° 347° (NNW) 1,942 6.0 -18.2°
Sets 00:10:34 0° 356° (N) 2,850 7.0 -17.8°
